Regional Weather Roundup
Issued by NWS

Home | Current Version | Previous Version | Graphics & Text | Print | Product List | Glossary On
Versions: 1 2 3 4 5 6 7 8 9 10 11 12 13 14 15 16 17 18 19 20 21 22 23 24 25 26 27 28 29 30 31 32 33 34 35 36 37 38 39 40 41 42 43 44 45 46 47 48 49 50
823
ASUS43 KLSX 270259
RWRMO

WEATHER SUMMARY FOR MISSOURI
NATIONAL WEATHER SERVICE SPRINGFIELD MO
1000 PM CDT WED JUL 26 2017

NOTE: "FAIR" INDICATES FEW OR NO CLOUDS BELOW 12,000 FEET WITH NO
       SIGNIFICANT WEATHER AND/OR OBSTRUCTIONS TO VISIBILITY.
       CURRENT SKY AND/OR WEATHER CONDITIONS ARE NOT AVAILABLE FOR
       CHILLICOTHE AND FARMINGTON.

MOZ001>031-035>038-043-044-053-054-270400-
...NORTHERN AND WESTERN MISSOURI...

CITY           SKY/WX    TMP DP  RH WIND       PRES   REMARKS
KANSAS CTY INT TSTM      74  73  97 MISG      29.98F
KANSAS C DTWN  TSTM      77  76  96 N10       29.96R FOG
LEE`S SUMMIT   TSTM      78  77  96 NE6       29.97R
ST JOSEPH      CLOUDY    78  76  93 CALM      29.96R
CHILLICOTHE      N/A     78  78 100 CALM      29.99R
KIRKSVILLE     CLOUDY    77  73  87 CALM      29.98R

$$
MOZ066>068-077>081-088>096-101>105-270400-
...SOUTHWEST MISSOURI...

CITY           SKY/WX    TMP DP  RH WIND       PRES   REMARKS
SPRINGFIELD    PTCLDY    83  72  69 S8        30.00R
JOPLIN         MOCLDY    87  73  62 S12       29.98R HX  94

$$
MOZ032>034-039>042-045>050-055>058-069>072-270400-
...CENTRAL MISSOURI...

CITY           SKY/WX    TMP DP  RH WIND       PRES   REMARKS
COLUMBIA       CLOUDY    83  77  82 E3        29.96S HX  92
JEFFERSON CITY MOCLDY    84  77  79 CALM      29.94S HX  94
ROLLA          CLOUDY    83  72  69 S6        29.99F
SEDALIA        CLOUDY    81  80  97 NW6       30.00R HX  91
WARRENSBURG    CLOUDY    77  75  94 CALM      29.95R
OSAGE BEACH    CLOUDY    86  72  62 CALM      29.97S HX  92

$$
MOZ051-052-059>065-270400-
...EAST CENTRAL MISSOURI...

CITY           SKY/WX    TMP DP  RH WIND       PRES   REMARKS
ST LOUIS INTL  MOCLDY    87  72  60 S5        29.96F HX  93
SPIRIT OF STL  MOCLDY    85  74  69 S3        29.94F HX  92
ST CHARLES     CLOUDY    82  72  71 NE3       29.94F

$$
MOZ072>076-082>087-097>100-106>115-270400-
...SOUTH CENTRAL AND SOUTHEAST MISSOURI...

CITY           SKY/WX    TMP DP  RH WIND       PRES   REMARKS
CAPE GIRARDEAU CLOUDY    83  73  72 S10       29.98F
FARMINGTON     CLOUDY    80  73  79 SE3       30.01R
POPLAR BLUFF   CLOUDY    82  76  81 S6        29.99S
WEST PLAINS    CLOUDY    83  72  69 S7        30.04S

$$




USA.gov is the U.S. government's official web portal to all federal, state and local government web resources and services.